DELTA 1 DEB, 10659

Orbit data source: Space-Track

DELTA 1 DEB, 10659 is space debris in SSO originally from a launch on Thu, 29 Jul 1976 UTC launched from the Air Force Western Test Range (AFWTR). Debris objects in space refer to the collection of defunct objects orbiting the Earth. Examples of debris include non-operational satellites, rocket bodies, and fragments generated from explosions, collisions, or faulty payload assembly.

Loading next visibility...
Identifier
10659, 1976-077V
Orbit
SSO
Country
Flag of USUS
Related business
Manufacturer
Unknown
Mission
Spacecraft
Bus & Motor
Unknown
Mass
Unknown
Launch date (UTC)
1976-07-29 (50 years ago)
Launch vehicle
Unknown
Launch site
Air Force Western Test Range (AFWTR)
Object type
Payload
Rocket body
Debris
Shape & HBR
Unknown shape, 0.3 m
Radar Cross Section
Medium (>0.1 m² and <1 m²)

Expand to show TLE details & history
Last TLE update: 1 day ago

TLE from 1 day ago
0 DELTA 1 DEB
1 10659U 76077V   26254.79133786 -.00000037  00000-0  64348-4 0  9991
2 10659 102.1985 186.5760 0175029 290.4545  95.5234 12.09431571213103
Epoch: 2026-09-11T18:59Z
TLE epoch observation values (Epoch: 2026-09-11T18:59:31.591Z)
Latitude
27.32251°
Longitude
-95.49687°
Altitude
1,657.831 km
Speed
7.039 km/s
True Right ascension
12h 00m 46s
True Declination
27° 11' 54"
Sunlit
Object was in daylight at epoch
Visualization orbit readout
Latitude
Unknown
Longitude
Unknown
Altitude
Unknown
Speed
Unknown
Apparent Right ascension
Unknown
Apparent Declination
Unknown
Sunlit
N/A
Visualization observer readout
Local Sidereal Time
16:32:41
Azimuth
Unknown
Elevation
Unknown
Doppler factor
Unknown
Orbital elements
Apogee altitude
1,776.813 km
Perigee altitude
1,496.253 km
Semi-major axis
8,014.67 km
Eccentricity
0.0175
Inclination
102.1985°
RAAN
186.576°
Arg. of periapsis
290.4545°
True anomaly
97.51518°
Mean anomaly
95.5234°
Eccentric anomaly
96.51976°
Mean motion
3.02493 °/min
Orbital period
119.01 mins
BSTAR
0.000064348
Loading maneuver chart data...
Computing Atmospheric mass density...
Loading historical data...
Loading historical data...
Loading historical data...
Loading historical data...
Loading historical data...
Loading historical data...
Loading historical data...

Documentation

Showing up to 5 results
|